Regional Weather Roundup
Issued by NWS

Home | Current Version | Previous Version | Text Only | Print | Product List | Glossary On
Versions: 1 2 3 4 5 6 7 8 9 10 11 12 13 14 15 16 17 18 19 20 21 22 23 24 25 26 27 28 29 30 31 32 33 34 35 36 37 38 39 40 41 42 43 44 45 46 47 48 49 50
000
ASUS43 KDTX 200810
RWRMI
MICHIGAN HOURLY REGIONAL WEATHER ROUNDUP
NATIONAL WEATHER SERVICE DETROIT/PONTIAC MI
400 AM EDT MON OCT 20 2014

NOTE: "FAIR" INDICATES FEW OR NO CLOUDS BELOW 12,000 FEET WITH NO
SIGNIFICANT WEATHER AND/OR OBSTRUCTION TO VISIBILITY.

MIZ047>049-052>055-059>063-066>070-074>076-081>083-200900-
SOUTHEAST LOWER MICHIGAN

CITY           SKY/WX    TMP DP  RH WIND       PRES   REMARKS
ADRIAN         CLOUDY    48  40  73 SW9       29.93F
ALMA           CLOUDY    48  43  84 S9        29.83F
ANN ARBOR      CLOUDY    48  38  68 SW9       29.91F
BAD AXE        LGT RAIN  45  43  95 S9        29.85F
DETROIT CITY   CLOUDY    52  38  58 SW10      29.92F
DETROIT        CLOUDY    49  39  68 S10       29.92F
FLINT          CLOUDY    49  42  77 S9        29.87F
GROSSE ILE     CLOUDY    52  39  62 SW8       29.92F
HILLSDALE      CLOUDY    48  42  81 S6        29.91F
HOWELL         LGT RAIN  46  42  87 S7        29.88F

CITY           SKY/WX    TMP DP  RH WIND       PRES   REMARKS
JACKSON        LGT RAIN  48  43  82 SW10      29.89F
LAMBERTVILLE   CLOUDY    50  39  66 SW6       29.94F
LANSING        CLOUDY    48  43  82 S12G20    29.86F
LAPEER         NOT AVBL
MASON          CLOUDY    46  43  88 S5        29.88F
MONROE         CLOUDY    48  39  71 S6        29.91F
MT. CLEMENS    CLOUDY    50  36  59 SW9       29.88F
PONTIAC        LGT RAIN  47  38  71 SW8       29.89F
PORT HOPE        N/A     46  42  86 SW8       29.82F
PORT HURON     CLOUDY    48  39  71 SW6       29.90F
TRI CITIES     LGT RAIN  49  43  80 S9        29.84F
YPSILANTI      CLOUDY    51  39  63 SW12      29.92F
$$
MIZ043>046-050>051-056>058-064>065-071>073-077>080-200900-
SOUTHWEST LOWER MICHIGAN

CITY           SKY/WX    TMP DP  RH WIND       PRES   REMARKS
BATTLE CREEK   CLOUDY    48  43  82 SW10      29.87F
BENTON HARBOR  CLOUDY    49  45  86 S8        29.86F
BIG RAPIDS     CLOUDY    49  49 100 SW7       29.79F
COLDWATER      LGT RAIN  49  44  84 SW8       29.90F
HOLLAND        CLOUDY    50  47  89 S8        29.83F
GRAND RAPIDS   CLOUDY    50  45  83 S9        29.84F
KALAMAZOO      CLOUDY    48  44  86 S13       29.87F
MARSHALL       LGT RAIN  46  43  90 S6        29.88F
MUSKEGON       CLOUDY    55  48  77 SW14      29.81F
$$
MIZ016>042-200900-
NORTHERN LOWER MICHIGAN

CITY           SKY/WX    TMP DP  RH WIND       PRES   REMARKS
ALPENA         CLOUDY    46  41  82 S5        29.77F
BEAVER ISLAND  CLOUDY    52  49  87 SW10      29.73F
BELLAIRE       CLOUDY    50  46  87 SW5       29.76S
CADILLAC       CLOUDY    48  47  96 SW9       29.77F
CHARLEVOIX     CLOUDY    51  48  90 S5        29.77S
FRANKFORT      CLOUDY    53  46  76 SW6       29.76F
GAYLORD        CLOUDY    46  43  89 SW8       29.75F
GRAYLING       CLOUDY    49  47  93 CALM      29.77F
HARBOR SPRINGS CLOUDY    50  46  83 SW5       29.75S
HOUGHTON LAKE  CLOUDY    47  44  90 SW8       29.78F
MANISTEE       CLOUDY    52  45  76 CALM      29.78S
OSCODA         LGT RAIN  46  43  91 SW8       29.79F
PELLSTON       CLOUDY    50  45  83 SW6       29.75F
TRAVERSE CITY  CLOUDY    51  45  79 S5        29.74F
$$
MIZ007>008-015-200900-
EASTERN UPPER MICHIGAN

CITY           SKY/WX    TMP DP  RH WIND       PRES   REMARKS
KINROSS        CLOUDY    45  45 100 S7        29.73F
MACKINAC ISLAN CLOUDY    50  46  86 SW6       29.73F
NEWBERRY       CLOUDY    47  46  96 SW7       29.71F
S. S. MARIE    CLOUDY    45  43  93 CALM      29.72F FOG
$$
MIZ004>006-011>014-085-200900-
CENTRAL UPPER MICHIGAN

CITY           SKY/WX    TMP DP  RH WIND       PRES   REMARKS
MANISTIQUE     CLOUDY    49  46  90 W3        29.72S
ESCANABA       CLOUDY    48  43  81 NW6       29.73R
MENOMINEE      CLOUDY    48  43  81 CALM      29.73S
SAWYER-GWINN   CLOUDY    44  42  93 CALM      29.73F
$$
MIZ001>003-009>011-084-200900-
WESTERN UPPER MICHIGAN

CITY           SKY/WX    TMP DP  RH WIND       PRES   REMARKS
IRON MOUNTAIN  FOG       38  38 100 CALM      29.73S VSB 3/4
HOUGHTON       CLOUDY    45  41  86 N8        29.76R
COPPER HARBOR    N/A     46  42  86 N13       29.75R
IRONWOOD       CLOUDY    48  43  81 NW7       29.78S
$$

ABBREVIATIONS USED IN REMARKS
   TC - TEMPERATURE IN CELSIUS
  WCI - WIND CHILL INDEX
   HX - HEAT INDEX
  VSB - VISIBILITY



USA.gov is the U.S. government's official web portal to all federal, state and local government web resources and services.